Location: Burgberg
(50.1428°N, 11.0671°E)
Time: 16:14:37
(UTC+00:00)

Cosmos 2360 Rocket - Pass Details

Date: 26 January 2020
Orbit: 834 x 844 km, 71.0° (Epoch: 21 February)

Event Time Altitude Azimuth Distance (km) Brightness Sun altitude
Rises 04:51:00 0° 184° (S) 3,390 5.4 -20.2°
Reaches altitude 10° 04:53:33 10° 178° (S) 2,460 4.7 -19.8°
Maximum altitude 04:58:50 42° 109° (ESE) 1,187 3.5 -19.0°
Drops below altitude 10° 05:04:08 10° 40° (NE) 2,474 5.0 -18.1°
Sets 05:06:41 0° 34° (NNE) 3,412 5.7 -17.7°
